Location: Geelbroek
(52.9503°N, 6.5712°E)
Time: 21:47:10
(UTC+00:00)

Helios 1A Rocket - Pass Details

Date: 15 May 2026
Orbit: 399 x 409 km, 98.3° (Epoch: 10 June)

Event Time Altitude Azimuth Distance (km) Brightness Sun altitude
Rises 20:06:08 0° 13° (NNE) 2,345 6.5 -5.6°
Reaches altitude 10° 20:08:08 10° 12° (NNE) 1,476 5.5 -5.9°
Maximum altitude 20:11:16 72° 288° (WNW) 430 2.5 -6.2°
Drops below altitude 10° 20:14:21 10° 203° (SSW) 1,454 4.8 -6.5°
Sets 20:16:19 0° 201° (SSW) 2,306 5.8 -6.8°
